EW7186 Weather Reports


Display with metric or nautical units.
time (UTC)temp
F
wind
direction
speed
MPH
gust
MPH
rain 1hr
in
rain 24hr
in
rain mn
in
humidity
%
barometer
mb
20260902173107 91 63 2.0 3.0 0.00 0.00 0.00 58 1018.0
20260902171609 91 62 2.0 3.0 0.00 0.00 0.00 59 1018.2
20260902170108 90 63 3.0 4.0 0.00 0.00 0.00 58 1018.4
20260902164559 90 70 2.0 3.0 0.00 0.00 0.00 59 1018.5
20260902163100 89 72 3.0 4.0 0.00 0.00 0.00 62 1018.5
20260902161612 89 78 0.0 0.0 0.00 0.00 0.00 66 1018.5
20260902160059 88 0 0.0 3.0 0.00 0.00 0.00 66 1018.6
20260902154606 88 0 0.0 0.0 0.00 0.00 0.00 67 1018.7
20260902153107 88 0 1.0 4.0 0.00 0.00 0.00 68 1018.7
20260902151606 87 340 1.0 3.0 0.00 0.00 0.00 70 1018.8
20260902150103 86 346 2.0 4.0 0.00 0.00 0.00 70 1018.8
20260902144607 86 0 0.0 4.0 0.00 0.00 0.00 71 1018.7
20260902143107 85 330 3.0 4.0 0.00 0.00 0.00 72 1018.6
20260902141607 85 0 1.0 4.0 0.00 0.00 0.00 75 1018.6
20260902140106 83 0 0.0 3.0 0.00 0.00 0.00 78 1018.7
20260902134607 83 0 0.0 0.0 0.00 0.00 0.00 80 1018.8
20260902133108 82 0 0.0 1.0 0.00 0.00 0.00 82 1018.8
20260902131601 80 0 0.0 0.0 0.00 0.00 0.00 84 1018.8
20260902130100 79 0 0.0 1.0 0.00 0.00 0.00 86 1018.9
20260902124601 78 0 0.0 0.0 0.00 0.00 0.00 88 1018.9
20260902123106 77 0 0.0 0.0 0.00 0.00 0.00 89 1018.9
20260902121604 77 0 0.0 1.0 0.00 0.00 0.00 90 1019.0
20260902120101 76 224 0.0 1.0 0.00 0.00 0.00 90 1019.0
20260902114604 76 0 0.0 0.0 0.00 0.00 0.00 90 1018.9
20260902113111 76 0 0.0 0.0 0.00 0.00 0.00 91 1018.6
20260902111558 75 0 0.0 0.0 0.00 0.00 0.00 91 1018.4
20260902110056 75 0 0.0 0.0 0.00 0.00 0.00 91 1018.5
20260902104558 75 0 0.0 0.0 0.00 0.00 0.00 91 1018.4
20260902103106 76 0 0.0 0.0 0.00 0.00 0.00 90 1018.3
20260902101557 76 0 0.0 0.0 0.00 0.00 0.00 90 1018.1
20260902100112 76 0 0.0 0.0 0.00 0.00 0.00 90 1018.1
20260902094604 76 0 0.0 0.0 0.00 0.00 0.00 90 1018.0
20260902093111 76 0 0.0 0.0 0.00 0.00 0.00 90 1018.0
20260902091610 76 0 0.0 0.0 0.00 0.00 0.00 89 1017.8
20260902090114 76 0 0.0 0.0 0.00 0.00 0.00 89 1017.7
20260902084602 77 0 0.0 1.0 0.00 0.00 0.00 89 1017.8
20260902083103 77 0 0.0 0.0 0.00 0.00 0.00 88 1017.6
20260902081604 77 0 0.0 0.0 0.00 0.00 0.00 88 1017.5
20260902080114 77 0 0.0 0.0 0.00 0.00 0.00 87 1017.6
20260902074621 78 0 0.0 0.0 0.00 0.00 0.00 87 1017.4
20260902073109 78 0 0.0 1.0 0.00 0.00 0.00 86 1017.4
20260902071628 78 0 0.0 0.0 0.00 0.00 0.00 86 1017.5
20260902070106 79 0 1.0 2.0 0.00 0.00 0.00 85 1017.6
20260902064611 79 0 0.0 0.0 0.00 0.00 0.00 85 1017.7
20260902063059 79 0 0.0 2.0 0.00 0.00 0.00 84 1017.6
20260902061612 80 231 2.0 4.0 0.00 0.00 0.00 83 1017.6
20260902060056 80 0 1.0 3.0 0.00 0.00 0.00 82 1017.7
20260902054555 80 218 0.0 3.0 0.00 0.00 0.00 81 1017.9
20260902053059 80 0 0.0 1.0 0.00 0.00 0.00 80 1017.8
20260902051558 81 0 0.0 2.0 0.00 0.00 0.00 79 1017.7
20260902050114 81 217 1.0 5.0 0.00 0.00 0.00 78 1017.5
20260902044604 81 193 0.0 2.0 0.00 0.00 0.00 79 1017.5
20260902043114 81 191 1.0 2.0 0.00 0.00 0.00 79 1017.4
20260902041602 81 0 0.0 3.0 0.00 0.00 0.00 80 1017.3
20260902040059 81 0 0.0 1.0 0.00 0.00 0.00 80 1017.4
20260902034601 82 191 1.0 2.0 0.00 0.00 0.00 80 1017.4
20260902033100 82 0 0.0 2.0 0.00 0.00 0.00 80 1017.3
20260902031559 81 0 0.0 1.0 0.00 0.00 0.00 82 1017.4
20260902030107 81 0 0.0 1.0 0.00 0.00 0.00 84 1017.3
20260902024604 82 0 0.0 0.0 0.00 0.00 0.00 84 1017.3
20260902023116 82 0 0.0 0.0 0.00 0.00 0.00 83 1017.3
20260902021559 83 0 0.0 0.0 0.00 0.00 0.00 82 1017.3
20260902020105 83 0 0.0 1.0 0.00 0.00 0.00 82 1017.1
20260902014601 83 0 0.0 0.0 0.00 0.00 0.00 81 1017.1
20260902013059 84 0 0.0 0.0 0.00 0.00 0.00 79 1017.0
20260902011601 85 0 0.0 0.0 0.00 0.00 0.00 79 1016.7
20260902010120 85 0 0.0 0.0 0.00 0.00 0.00 74 1016.7
20260902004603 85 0 0.0 0.0 0.00 0.00 0.00 70 1016.5
20260902003103 86 0 0.0 0.0 0.00 0.00 0.00 66 1016.4
20260902001557 87 0 0.0 0.0 0.00 0.00 0.00 65 1016.4
20260902000105 88 0 0.0 0.0 0.00 0.00 0.00 65 1016.5
20260901234559 89 0 0.0 0.0 0.00 0.00 0.00 67 1016.6
20260901233104 90 0 0.0 0.0 0.00 0.00 0.00 66 1016.5
20260901231607 90 0 0.0 0.0 0.00 0.00 0.00 56 1016.5
20260901230104 91 0 0.0 0.0 0.00 0.00 0.00 54 1016.6
20260901224601 91 0 0.0 0.0 0.00 0.00 0.00 56 1016.8
20260901223058 92 0 0.0 0.0 0.00 0.00 0.00 56 1016.8
20260901221629 92 0 0.0 2.0 0.00 0.00 0.00 55 1016.8
20260901220112 92 0 2.0 4.0 0.00 0.00 0.00 56 1016.8
20260901214559 92 70 2.0 3.0 0.00 0.00 0.00 57 1016.8
20260901213110 92 62 2.0 3.0 0.00 0.00 0.00 56 1016.7
20260901211609 92 0 0.0 3.0 0.00 0.00 0.00 54 1016.9
20260901210104 92 0 0.0 1.0 0.00 0.00 0.00 57 1016.8
20260901204558 91 102 0.0 3.0 0.00 0.00 0.00 56 1017.0
20260901203102 92 0 0.0 0.0 0.00 0.00 0.00 53 1017.1
20260901201602 91 0 0.0 0.0 0.00 0.00 0.00 53 1017.2
20260901200107 91 0 0.0 2.0 0.00 0.00 0.00 56 1017.4
20260901194605 91 0 0.0 3.0 0.00 0.00 0.00 55 1017.4
20260901193105 91 68 2.0 3.0 0.00 0.00 0.00 55 1017.5
20260901191611 90 60 3.0 4.0 0.00 0.00 0.00 56 1017.6
20260901190128 90 72 3.0 4.0 0.00 0.00 0.00 59 1017.8
20260901184611 90 58 3.0 4.0 0.00 0.00 0.00 60 1018.0
20260901183056 90 61 3.0 5.0 0.00 0.00 0.00 59 1017.9
20260901181611 90 58 2.0 4.0 0.00 0.00 0.00 60 1018.2
20260901180108 89 64 3.0 5.0 0.00 0.00 0.00 61 1018.4
20260901174605 89 61 4.0 5.0 0.00 0.00 0.00 61 1018.4